GFSNIL_sfc_temp_000.txt.gz
Temp
72 70 68 67 66 66 67 68 68 68 68 68 68 69 69 68 68 68 67 67 65 65
70 67 67 66 66 67 67 68 68 68 68 68 68 69 69 68 68 68 68 68 67 66
69 68 67 66 66 65 66 68 68 68 68 68 68 69 68 68 68 68 68 68 67 66
69 68 67 67 67 67 66 67 67 67 67 68 68 68 67 67 68 67 67 67 66 67
71 69 70 67 68 67 67 66 67 67 67 68 68 68 67 67 69 67 67 67 67 67
69 69 67 67 67 67 67 66 67 67 67 67 67 67 67 67 67 67 67 67 66 66
68 69 68 67 67 67 67 67 67 67 67 67 67 67 68 67 67 66 67 67 67 66
70 70 68 66 67 67 67 68 67 67 67 67 68 71 68 67 67 67 67 67 67 66
69 67 66 66 66 66 67 66 67 66 67 67 70 66 66 68 68 68 67 67 66 65
67 66 66 66 66 66 65 66 66 66 67 67 68 63 63 66 67 66 66 64 63 63
67 66 65 65 64 65 65 65 66 66 66 66 67 62 61 64 66 65 65 63 63 62
68 67 67 66 65 67 66 65 65 66 66 65 65 60 59 61 64 64 63 63 62 61
68 66 66 67 67 66 65 65 65 65 64 61 63 59 58 59 62 62 62 60 60 58
68 67 67 65 64 63 64 64 64 63 62 63 63 64 57 55 61 62 60 60 61 59

GFSNIL_sfc_temp_003.txt.gz
Temp
82 84 84 82 83 82 82 82 81 79 80 79 79 78 78 80 80 78 78 77 77 78
82 82 83 81 80 82 80 82 80 80 79 79 78 78 78 80 78 78 77 78 78 78
82 82 82 81 78 79 80 80 79 79 79 79 78 78 77 79 79 77 79 80 77 76
83 82 82 78 78 73 76 78 78 78 78 79 78 78 77 77 78 77 77 77 76 76
82 76 76 78 73 75 73 77 78 78 78 78 79 79 77 77 79 77 77 77 77 76
80 79 79 71 76 72 71 72 77 77 76 77 78 78 78 77 77 77 77 77 77 77
80 80 73 72 68 70 69 71 71 73 75 77 78 78 79 78 76 77 78 77 77 77
80 79 74 68 67 67 67 67 70 71 73 76 77 81 77 77 77 77 77 78 77 78
78 74 72 71 68 67 67 67 70 71 71 72 75 69 67 73 77 77 76 76 78 77
75 72 72 72 71 68 65 66 69 71 71 73 73 65 64 66 77 77 76 72 73 75
74 73 72 72 71 69 67 69 71 72 73 73 75 62 61 63 73 69 71 74 74 73
74 73 72 72 71 71 70 71 70 72 72 72 72 60 60 64 68 68 66 71 73 70
74 73 72 73 72 72 72 69 72 71 72 67 71 58 58 63 63 64 64 70 68 60
74 74 75 74 73 72 71 71 70 69 71 70 69 67 57 55 65 65 68 72 73 70

GFSNIL_sfc_temp_006.txt.gz
Temp
87 90 90 89 92 91 91 91 89 85 85 85 85 84 83 84 84 83 82 80 81 84
87 87 90 90 89 91 89 92 88 86 85 85 85 83 82 84 82 82 82 82 81 82
88 87 88 89 87 87 89 87 87 85 85 84 83 83 81 83 83 81 83 84 82 81
89 89 88 88 86 86 86 85 84 83 83 84 82 82 80 80 82 81 80 81 80 79
89 89 88 85 84 81 83 83 82 81 80 80 83 82 80 80 82 81 80 80 80 80
89 89 88 85 84 83 82 77 77 76 76 78 77 82 81 81 81 81 81 81 80 80
89 89 87 86 78 77 79 76 71 73 73 77 80 80 80 81 81 80 81 81 80 80
90 89 85 82 79 77 77 77 72 73 74 77 78 78 80 81 81 79 80 81 81 82
88 86 83 79 77 78 76 75 73 73 75 75 78 73 70 76 81 80 79 79 80 79
86 83 80 79 78 76 75 74 77 77 76 75 77 67 67 68 81 81 80 78 77 76
84 81 80 78 76 76 77 76 76 77 76 77 80 65 63 66 78 78 79 78 76 74
83 80 78 76 76 78 77 77 78 79 78 77 78 60 61 65 80 79 76 71 72 71
82 81 78 77 77 76 77 78 80 78 78 74 76 59 59 64 81 74 75 67 68 62
81 80 79 77 75 76 76 75 76 76 78 76 70 74 56 57 73 78 73 75 72 74

GFSNIL_sfc_temp_009.txt.gz
Temp
88 91 92 90 93 92 93 94 89 87 87 86 86 85 84 84 84 84 83 81 81 84
88 88 91 90 90 93 91 94 91 88 86 86 86 85 83 83 83 82 83 82 81 82
89 89 90 91 90 90 91 90 89 87 86 85 85 84 82 83 83 81 83 84 83 82
90 90 90 90 90 90 90 89 88 85 85 84 82 82 81 81 83 82 80 81 80 81
91 91 90 89 90 89 87 88 86 85 83 84 80 75 81 80 82 81 80 80 79 80
91 91 90 89 90 88 87 86 86 85 82 81 82 82 82 81 76 81 82 81 81 80
91 91 91 90 88 89 86 85 84 83 81 81 81 81 82 81 81 81 81 81 82 81
92 92 91 89 88 87 86 85 83 83 80 79 83 85 80 82 81 78 79 81 81 81
92 90 89 88 87 84 83 83 82 80 77 78 83 74 70 78 81 81 79 79 81 80
92 89 88 87 84 81 79 81 80 79 77 77 80 65 67 69 82 82 81 79 78 80
91 89 87 84 81 79 79 79 79 77 78 78 79 65 65 68 80 80 79 81 80 78
90 87 86 82 81 79 77 77 78 77 75 76 79 63 62 68 78 76 78 81 81 80
88 86 84 83 79 79 79 78 81 79 75 73 78 60 60 66 73 74 76 73 76 64
86 85 84 81 79 79 77 76 74 74 76 79 77 75 57 58 72 81 82 76 76 76

GFSNIL_sfc_temp_012.txt.gz
Temp
84 86 86 86 86 86 85 86 82 82 81 81 79 79 78 78 77 77 76 76 76 75
83 84 86 85 85 87 84 88 82 82 81 81 79 79 78 77 75 78 77 76 75 75
85 84 85 84 84 84 85 85 82 82 82 80 79 77 76 75 77 75 76 76 75 74
86 86 85 85 85 84 84 83 82 81 80 80 79 78 76 75 76 75 74 75 75 75
86 86 85 84 85 85 84 84 82 82 80 80 78 78 75 75 77 76 74 74 74 74
86 85 85 84 85 85 84 83 83 81 80 79 78 77 76 75 75 76 74 74 74 73
86 86 86 85 84 85 84 83 83 81 80 80 79 77 77 77 76 75 75 76 75 74
87 86 86 85 85 85 84 84 83 81 80 80 79 81 77 77 76 75 74 76 75 76
86 85 84 84 84 84 84 83 82 80 80 78 78 73 71 76 77 75 73 74 75 76
86 85 84 85 84 83 82 82 80 80 79 76 76 66 66 71 77 74 75 75 74 75
87 85 84 84 84 83 82 81 79 78 74 74 76 67 64 66 72 73 73 75 74 72
88 86 85 84 83 82 80 78 76 74 72 71 73 63 62 64 72 73 73 74 73 72
88 86 84 83 80 78 77 76 77 73 73 70 73 63 61 63 75 73 73 71 71 65
87 85 84 82 79 76 76 77 74 73 74 74 71 72 58 58 72 71 69 69 68 71

GFSNIL_sfc_temp_015.txt.gz
Temp
77 81 80 77 76 79 80 80 77 77 76 74 74 74 72 70 70 70 68 69 68 68
80 79 80 77 77 77 79 79 78 77 76 76 74 72 72 70 69 69 69 68 68 67
81 81 82 76 78 77 78 77 78 76 77 75 75 72 71 69 70 68 68 68 68 68
81 81 81 78 77 77 78 76 77 77 76 76 74 73 70 69 69 69 68 68 67 68
81 81 80 81 79 77 79 77 78 78 76 76 76 74 72 70 72 68 68 68 67 68
81 81 81 80 81 79 80 79 78 78 77 76 75 73 73 71 68 68 69 68 69 68
82 82 82 82 81 80 80 78 78 78 77 77 75 74 73 70 68 68 69 69 69 71
83 83 82 81 81 81 80 79 77 75 76 75 74 75 69 71 70 68 68 69 71 73
83 82 81 81 80 79 79 77 77 75 75 73 76 70 69 72 71 69 68 69 72 71
83 81 81 80 79 78 79 79 77 77 75 73 74 66 66 69 70 71 71 71 72 72
82 81 81 80 79 80 79 79 76 75 73 73 70 65 64 67 68 67 68 71 70 68
82 81 81 79 80 80 77 76 74 73 71 69 68 63 62 65 68 69 69 69 69 67
84 82 80 81 79 75 76 72 72 70 70 67 68 62 61 62 69 68 64 65 68 65
83 81 81 77 75 73 72 73 70 69 70 71 69 66 59 58 69 68 65 64 64 64

GFSNIL_sfc_temp_018.txt.gz
Temp
78 78 77 74 74 75 78 79 76 75 75 71 71 69 69 68 67 67 66 66 65 65
78 79 78 73 74 75 78 78 75 76 75 73 71 70 69 67 67 67 66 65 65 65
79 79 79 75 74 75 76 77 75 75 75 73 72 70 69 67 67 66 66 66 65 64
79 80 78 77 76 77 76 76 76 75 75 74 72 71 69 67 67 66 66 66 66 66
79 79 79 79 77 76 77 76 76 76 75 74 74 72 71 68 70 67 65 66 65 66
79 78 78 79 80 76 77 75 76 75 75 74 74 72 72 70 69 68 67 67 66 66
79 79 79 79 79 79 78 75 75 75 75 75 74 73 72 71 69 69 68 68 68 67
80 80 80 79 78 79 78 78 75 74 74 74 74 74 72 71 70 69 68 67 67 68
80 79 79 78 78 77 77 74 73 73 74 72 75 70 68 72 69 69 68 67 65 67
80 78 78 78 77 76 76 76 73 73 73 72 73 66 66 68 67 68 68 67 66 68
79 78 78 78 77 76 77 76 74 73 73 73 72 65 64 67 69 68 69 69 67 67
80 78 78 77 76 78 77 76 75 75 73 72 71 62 61 65 67 67 68 68 68 67
81 79 78 78 78 79 77 76 75 73 73 69 67 59 60 63 68 67 67 66 66 63
81 80 80 78 77 75 75 74 72 69 68 69 68 64 58 58 68 67 64 64 65 66

GFSNIL_sfc_temp_021.txt.gz
Temp
79 78 78 74 74 76 74 74 76 74 73 71 69 69 67 65 65 65 65 64 63 63
78 78 77 73 75 75 75 75 74 75 73 71 70 69 67 65 65 65 64 64 64 63
78 78 77 75 74 73 75 75 73 74 74 72 70 69 68 65 65 65 64 64 63 62
78 78 77 76 75 74 74 74 74 74 74 72 70 69 69 66 66 65 64 65 63 63
79 78 77 77 77 75 75 74 75 74 73 72 72 70 70 67 69 67 64 64 64 64
79 77 77 77 78 75 76 74 75 74 73 72 72 70 70 70 68 68 67 66 65 64
78 78 78 79 78 78 76 73 74 74 74 74 73 72 71 70 68 68 68 67 66 65
79 79 78 77 78 78 76 76 74 73 73 73 73 74 71 69 68 67 67 67 66 65
79 79 78 77 76 76 75 75 73 72 72 71 74 69 68 72 69 68 67 65 66 67
78 77 77 77 76 75 75 74 71 72 72 71 72 67 66 69 69 67 66 68 67 68
78 77 77 76 76 75 75 73 72 71 72 72 72 65 63 67 69 68 68 68 67 67
79 78 77 76 75 76 76 74 73 72 72 72 71 62 61 63 69 67 67 67 69 67
80 78 77 77 76 77 76 75 74 73 73 69 71 60 59 64 67 66 67 66 66 63
80 79 78 78 76 75 75 75 74 74 73 71 67 62 57 60 67 67 65 64 62 63

GFSNIL_sfc_temp_024.txt.gz
Temp
76 77 77 75 76 75 75 76 75 75 75 74 72 72 70 70 69 69 69 68 68 69
76 76 76 75 75 76 75 77 75 75 75 74 72 72 70 70 69 69 69 68 68 69
77 77 77 76 74 74 75 76 75 75 75 73 72 71 70 69 69 69 69 69 67 67
77 77 77 76 75 75 75 74 75 75 74 73 72 71 70 69 69 69 68 68 67 67
77 77 76 76 76 75 74 75 75 75 74 74 72 72 71 70 71 69 68 69 67 68
77 76 76 76 77 75 75 74 75 75 74 73 73 71 72 72 71 70 70 70 69 68
77 77 77 76 77 76 75 74 75 74 74 74 74 73 72 72 71 71 71 70 69 69
77 78 77 76 76 77 75 75 75 75 74 74 74 75 72 71 71 70 70 69 69 69
77 77 76 76 76 76 75 75 74 74 74 74 76 70 68 72 71 70 69 67 69 70
77 76 76 76 75 75 74 74 73 74 74 73 74 66 66 68 71 70 69 69 68 67
76 76 76 76 75 75 76 74 73 73 73 73 73 64 64 67 72 70 70 69 69 69
77 76 76 75 75 76 75 75 73 74 73 72 73 62 61 65 71 69 69 69 69 69
78 76 76 76 76 76 76 75 74 73 73 71 73 60 60 64 70 68 68 68 69 64
78 77 77 77 77 76 75 75 74 74 73 74 72 69 58 59 70 70 67 68 67 67

GFSNIL_sfc_temp_027.txt.gz
Temp
81 84 85 84 86 86 87 87 86 84 84 84 83 83 81 82 82 81 80 79 79 83
81 82 84 84 84 86 85 88 86 85 84 84 83 82 81 83 79 79 79 79 78 80
82 82 83 83 82 84 86 85 86 84 84 84 83 82 80 82 80 78 80 81 78 78
83 83 83 83 83 83 84 84 84 83 84 83 83 81 80 81 81 78 78 78 77 77
83 83 83 82 83 83 83 84 84 84 83 83 83 82 80 80 81 78 78 79 77 77
83 82 82 82 83 83 83 83 84 84 83 83 83 81 81 81 80 79 80 80 78 78
83 83 83 82 82 83 83 82 83 83 83 83 83 83 82 81 81 80 80 80 79 79
83 83 83 82 82 83 83 82 83 83 83 83 84 85 81 81 81 80 79 80 79 79
83 82 81 81 81 81 82 81 82 82 82 82 85 75 70 78 81 80 79 79 79 79
82 81 81 81 81 80 81 81 81 81 82 81 82 68 67 70 83 80 80 79 80 79
80 80 81 81 80 80 81 80 81 81 81 81 82 66 65 68 81 81 81 80 80 78
81 81 81 80 79 81 81 81 81 82 81 80 81 63 63 67 79 81 79 80 80 78
83 81 81 81 80 81 82 81 84 82 81 76 81 61 61 67 84 80 81 79 77 65
83 82 81 79 81 81 81 82 81 81 81 80 78 78 59 59 81 83 80 78 75 79

GFSNIL_sfc_temp_030.txt.gz
Temp
86 90 90 90 93 92 94 95 93 90 90 89 90 89 88 89 88 87 86 84 84 90
86 87 90 90 90 94 92 95 93 91 88 90 89 88 87 89 86 87 85 85 84 86
88 88 89 90 89 90 93 91 92 90 90 89 89 88 86 88 87 85 87 88 85 84
89 89 88 89 89 89 90 91 89 90 89 89 89 88 86 87 89 84 84 85 85 82
89 89 90 88 89 89 88 90 90 90 88 89 89 89 86 86 89 85 84 84 83 83
90 89 89 88 88 89 88 88 90 90 88 88 89 88 87 87 87 87 86 86 84 83
90 90 90 89 88 89 88 88 88 89 89 89 89 89 89 88 87 87 87 86 86 85
90 90 89 88 88 88 88 88 88 88 89 90 91 92 89 89 88 87 86 87 86 86
89 88 88 87 87 87 87 87 87 88 88 88 92 80 74 84 89 88 86 85 86 86
89 87 86 87 86 86 85 87 86 87 88 87 88 73 70 73 90 88 87 86 86 86
88 87 87 86 85 85 86 86 86 86 86 87 89 70 67 71 86 89 88 87 86 86
89 87 87 85 85 86 86 86 86 87 86 86 87 66 64 70 85 87 87 88 88 87
89 87 86 86 85 86 87 86 89 87 87 81 86 65 61 70 88 86 88 86 86 70
89 87 87 86 86 86 86 87 85 85 86 86 85 84 59 60 85 91 89 91 88 88

GFSNIL_sfc_temp_033.txt.gz
Temp
88 91 90 91 94 94 96 96 96 91 91 90 91 90 90 90 89 88 87 85 84 91
87 88 91 90 91 95 92 98 96 93 90 91 90 90 89 90 88 89 86 86 85 86
89 88 89 91 90 90 94 93 95 93 92 90 90 90 89 90 90 87 89 89 86 85
90 90 89 90 91 90 92 93 91 91 91 90 90 90 88 88 90 87 86 87 87 84
91 90 91 89 90 91 90 91 91 91 90 90 90 90 88 87 90 88 85 85 86 85
91 91 90 90 90 90 90 90 93 90 90 89 90 89 89 88 88 90 88 87 86 85
92 91 92 91 90 90 90 89 89 90 90 90 90 90 90 89 88 88 90 88 88 87
92 92 91 90 90 90 90 90 90 89 90 90 91 93 89 89 88 87 88 89 88 88
92 90 90 90 89 89 89 89 89 89 89 89 93 81 75 85 89 88 87 86 88 88
92 90 89 90 89 87 87 88 87 88 89 88 89 74 72 74 91 89 88 87 87 89
92 91 90 89 88 87 88 87 87 87 88 88 90 72 68 71 87 88 88 88 87 87
92 90 89 87 87 88 88 87 87 89 87 87 87 69 66 69 87 87 86 88 89 88
92 90 89 88 87 88 88 88 90 89 88 82 87 71 64 69 90 87 88 86 87 72
91 89 89 88 88 87 87 88 86 87 88 87 85 86 62 62 86 90 89 90 89 91

GFSNIL_sfc_temp_036.txt.gz
Temp
83 85 85 86 87 86 87 88 86 85 85 84 84 84 84 84 83 82 81 81 79 78
82 84 85 84 86 88 86 91 88 86 85 85 85 84 84 84 82 83 81 80 80 78
83 84 85 85 84 85 87 86 89 85 85 85 84 85 83 84 84 82 82 82 79 78
85 84 85 85 85 86 86 87 86 85 84 84 84 84 83 82 83 82 81 81 79 78
85 85 85 84 86 86 86 86 87 86 85 85 84 84 83 82 84 83 81 81 80 79
86 85 85 85 85 86 85 86 87 87 85 84 84 84 84 83 83 82 83 82 80 80
86 86 86 86 85 85 86 85 86 86 85 86 85 85 85 84 83 83 84 83 82 81
87 87 87 86 86 86 85 86 85 85 86 86 87 88 84 84 84 83 82 84 84 83
87 86 86 86 85 85 85 85 85 85 85 85 89 79 75 82 85 84 82 82 83 84
87 86 85 86 85 84 84 85 84 84 85 84 85 73 72 73 86 84 83 82 82 84
88 87 86 85 85 84 85 84 84 84 84 84 85 72 69 71 84 84 84 84 83 82
89 87 86 85 84 85 85 84 85 85 84 83 84 69 67 69 82 84 83 84 84 83
89 87 87 86 85 85 86 85 87 85 85 80 84 71 64 67 84 83 84 83 83 72
88 87 87 86 86 85 85 85 84 84 85 85 83 83 63 61 83 85 84 84 84 85

GFSNIL_sfc_temp_039.txt.gz
Temp
77 79 81 76 77 76 79 81 82 79 81 78 78 77 77 76 76 75 74 74 72 71
79 78 81 81 77 78 78 81 81 82 80 79 79 77 77 78 76 76 74 73 73 72
80 81 80 79 80 77 80 79 79 81 81 80 80 79 77 76 76 75 75 75 73 72
80 80 81 80 80 77 79 79 77 79 80 80 80 79 79 76 76 75 75 75 73 72
81 80 81 81 77 82 77 81 78 80 80 80 80 80 77 77 79 75 74 74 73 73
81 81 80 81 82 78 82 80 82 79 80 80 80 79 80 79 79 77 77 77 75 75
81 81 82 81 81 82 81 82 80 82 79 81 81 81 81 80 79 79 79 77 78 78
83 83 83 82 82 81 82 82 83 82 82 81 82 83 81 81 81 80 79 79 79 79
83 83 82 82 82 81 81 82 82 81 83 82 84 76 73 80 81 81 80 78 79 80
84 82 82 83 82 81 81 82 81 82 81 82 83 71 70 72 83 82 81 81 80 80
84 82 83 83 82 83 83 82 82 81 82 82 83 70 68 70 82 83 82 82 81 81
84 83 83 82 83 83 84 83 83 83 82 81 82 67 66 67 80 82 82 83 82 82
85 84 83 83 84 84 84 84 84 83 83 78 82 68 63 66 81 81 82 83 83 71
83 84 84 84 84 84 83 83 83 82 83 83 81 81 61 61 79 82 82 82 82 83

GFSNIL_sfc_temp_042.txt.gz
Temp
77 78 78 75 73 75 77 77 78 78 78 77 76 75 74 73 73 73 71 72 70 69
77 79 79 76 76 73 74 78 78 79 78 78 76 76 74 74 73 74 72 71 72 69
79 78 80 79 74 73 74 77 78 78 79 78 78 76 74 74 74 74 73 72 71 70
79 80 77 77 77 77 75 76 77 78 78 78 78 77 74 74 75 74 74 73 72 71
79 78 78 77 77 78 78 76 77 76 78 78 78 78 77 75 77 75 74 74 72 73
78 78 77 78 78 79 78 79 76 76 76 77 78 78 78 78 77 75 76 75 74 75
78 78 78 79 79 78 79 78 75 76 77 78 78 79 79 79 77 77 76 76 76 76
79 80 79 78 79 80 79 78 80 78 78 79 79 80 79 79 79 78 77 76 76 77
79 79 79 79 77 78 78 79 78 78 78 77 81 74 72 78 79 79 78 77 77 77
80 78 78 79 79 77 78 78 78 79 79 80 79 69 69 71 81 80 79 79 79 78
80 79 79 79 78 79 79 78 78 79 79 79 81 68 67 69 79 81 80 80 80 79
81 80 79 78 79 80 80 80 80 80 79 79 80 66 65 67 77 79 80 81 80 80
82 82 80 80 80 81 81 81 81 81 81 76 80 67 63 65 79 78 79 81 82 70
83 82 83 82 82 82 81 81 81 80 82 81 78 78 61 60 78 79 79 80 81 82

GFSNIL_sfc_temp_045.txt.gz
Temp
77 76 76 75 71 72 74 75 77 75 75 74 74 74 72 72 72 71 71 70 68 68
77 77 76 74 75 74 72 75 74 76 76 74 74 74 73 71 72 72 71 70 70 68
77 77 78 75 72 72 74 75 75 75 76 74 74 74 73 72 72 72 72 70 69 69
77 78 78 76 74 74 72 74 73 74 75 75 74 74 73 74 73 72 72 72 71 70
78 77 77 76 75 75 74 72 75 73 74 76 76 75 75 74 76 73 72 73 72 72
78 77 76 76 76 75 75 73 73 73 75 75 76 76 75 76 75 74 75 74 73 74
77 77 77 77 77 77 76 75 74 75 76 77 76 76 76 76 76 75 75 75 74 75
77 78 77 77 77 77 77 77 77 75 76 76 77 78 76 76 76 75 75 74 75 75
77 77 76 76 76 76 76 76 76 77 76 76 78 72 71 76 77 76 76 75 74 76
77 76 76 77 75 75 75 76 76 76 77 76 77 69 68 70 79 77 77 77 77 77
77 76 76 76 75 75 76 75 76 76 76 77 78 68 66 69 77 79 78 78 78 78
78 77 76 76 76 77 76 76 76 77 76 76 77 65 65 66 75 77 77 79 79 79
79 78 77 77 77 78 78 78 78 77 77 74 77 66 63 65 77 75 76 78 79 69
80 79 79 78 78 78 78 78 77 77 78 78 76 77 61 60 77 78 78 78 78 80

GFSNIL_sfc_temp_048.txt.gz
Temp
75 75 75 73 72 73 73 74 75 75 76 76 76 76 75 75 75 75 75 74 72 73
75 74 74 73 73 73 73 76 75 76 76 76 76 76 75 75 75 75 74 74 74 73
75 75 75 73 73 72 73 75 75 75 76 76 76 76 75 75 75 75 75 75 73 73
76 76 76 74 74 74 74 74 74 75 75 76 76 76 75 75 76 75 75 75 74 73
76 76 76 75 74 74 73 74 75 75 75 76 76 76 75 75 77 75 75 75 75 75
76 76 75 75 75 75 75 74 75 75 75 75 76 76 76 76 76 76 77 77 76 76
76 76 76 76 76 75 75 74 74 75 75 76 76 77 77 76 76 76 77 77 77 77
76 76 76 76 76 76 75 75 76 75 76 76 77 79 76 77 76 76 76 76 77 78
76 76 75 75 74 75 75 75 75 75 76 75 79 72 70 75 77 76 76 75 76 77
75 75 75 75 74 74 74 75 75 75 75 75 76 68 68 70 79 77 77 77 77 77
75 75 75 75 74 74 75 74 75 75 75 75 76 67 66 68 76 78 78 78 78 77
76 75 75 74 74 75 75 75 75 76 75 75 76 64 64 66 76 76 77 79 78 78
76 76 75 75 75 76 76 76 77 76 76 72 76 65 62 65 77 76 77 78 78 69
77 76 76 76 76 76 76 76 76 76 77 77 75 75 61 60 76 77 77 77 78 80

GFSNIL_sfc_temp_054.txt.gz
Temp
86 90 90 89 93 93 94 94 93 90 91 90 90 90 89 91 90 90 89 87 87 93
86 87 90 90 89 93 92 95 93 92 90 91 90 90 89 91 89 89 88 89 88 89
87 87 88 90 88 89 92 90 92 90 90 90 90 90 88 91 90 88 91 92 89 88
89 89 88 88 88 88 89 90 88 89 89 90 90 90 88 88 90 88 88 89 89 87
89 89 89 87 88 88 87 89 88 89 88 89 90 90 88 88 91 88 88 88 88 88
89 89 89 88 88 88 87 87 90 89 88 88 90 89 89 88 89 89 89 89 89 88
89 90 90 89 88 88 88 87 88 89 89 89 90 90 90 89 89 89 90 90 90 90
89 90 89 88 88 88 88 88 88 88 89 89 91 94 90 90 90 88 89 90 90 91
88 88 88 87 87 87 87 87 87 88 88 88 93 79 74 83 90 89 88 88 90 90
88 86 86 87 87 86 86 87 86 87 88 88 89 71 70 72 90 90 89 89 89 91
87 86 87 86 86 85 87 86 86 86 87 88 89 69 67 70 87 89 90 90 90 89
88 86 86 85 85 86 86 86 86 87 86 86 87 67 65 70 87 87 87 89 90 90
88 87 86 86 85 87 87 87 90 88 88 81 87 68 63 69 89 88 90 88 88 73
88 87 87 86 86 86 86 88 86 87 88 88 85 85 61 60 85 90 92 92 94 95

GFSNIL_sfc_temp_057.txt.gz
Temp
87 91 91 91 94 94 96 97 93 91 92 91 91 91 89 90 90 90 89 88 87 93
86 87 90 90 91 95 93 98 95 93 91 92 91 91 90 91 89 90 89 89 88 89
87 87 89 90 90 90 94 93 94 93 92 91 91 91 90 91 91 90 91 92 89 88
89 89 88 91 90 91 92 92 91 91 91 90 90 91 89 89 92 88 89 90 91 89
90 90 90 88 90 91 89 91 91 90 90 90 91 91 89 88 91 90 89 89 89 89
91 90 90 89 90 90 89 89 91 90 89 89 90 90 90 89 89 90 90 90 90 89
90 91 91 91 89 90 89 89 89 90 90 90 90 91 91 90 89 90 91 91 91 91
91 91 91 90 90 90 90 89 89 89 90 91 91 94 90 91 90 89 89 91 91 91
90 89 89 88 88 88 89 89 88 89 89 90 94 80 75 85 91 90 89 88 90 91
90 88 88 89 88 87 87 88 87 88 89 88 90 73 72 74 92 91 90 89 89 91
90 88 88 88 87 87 88 87 87 88 88 88 90 72 67 71 89 89 90 91 90 89
91 89 88 87 86 88 88 88 88 89 88 87 88 69 66 70 88 88 88 90 90 91
91 90 88 88 87 88 88 88 91 90 90 83 88 68 64 70 91 88 90 88 87 73
91 89 89 88 88 88 88 89 87 89 90 89 87 86 62 61 87 91 92 92 94 95

GFSNIL_sfc_temp_060.txt.gz
Temp
83 85 85 86 87 86 87 86 85 86 85 85 85 84 84 84 84 83 83 83 82 81
82 83 84 84 86 87 86 89 86 86 86 86 85 85 82 82 81 82 83 82 83 82
82 83 83 83 84 84 87 87 84 85 85 86 86 86 84 83 83 81 81 84 81 82
83 83 83 84 83 84 85 87 87 87 86 85 85 86 84 83 84 83 82 84 84 81
84 83 84 82 85 85 85 86 86 85 86 85 85 85 84 83 85 83 83 83 83 84
85 84 83 83 84 85 84 85 87 86 84 84 85 84 84 84 83 83 84 84 83 83
85 85 85 84 83 85 85 84 85 85 85 85 85 85 85 85 84 84 85 85 84 84
85 85 85 84 83 84 84 85 85 84 85 85 86 89 84 85 84 83 83 84 85 85
85 84 84 83 84 83 83 84 84 84 84 84 89 79 75 82 85 84 83 82 83 85
85 84 83 84 83 83 82 84 83 83 84 83 85 73 72 74 86 84 84 83 83 85
86 84 84 83 83 83 84 83 83 83 83 84 85 72 68 71 83 84 84 84 84 83
87 85 84 83 83 84 84 83 83 84 83 83 84 69 68 69 80 83 82 84 84 84
87 86 84 83 83 84 84 84 86 85 85 80 83 69 65 69 85 82 83 82 82 72
88 86 86 84 84 84 84 84 83 84 85 85 83 83 63 61 83 85 84 84 84 85

GFSNIL_sfc_temp_063.txt.gz
Temp
75 78 75 77 77 82 82 83 79 79 78 78 78 78 77 76 76 76 75 75 75 75
75 77 76 77 78 79 80 82 80 80 80 78 78 77 77 76 75 76 75 75 75 75
78 76 75 77 77 78 79 80 79 81 81 79 78 78 76 75 76 75 75 77 75 74
79 78 77 75 77 77 78 78 80 79 78 79 79 78 77 76 77 75 75 76 75 76
79 79 79 76 75 79 77 77 80 81 81 78 78 78 77 76 79 77 75 77 76 76
80 79 80 80 76 77 77 77 79 79 80 80 80 78 77 77 77 77 77 77 77 76
80 80 80 81 81 77 81 78 79 78 79 78 79 78 78 78 77 77 77 78 78 78
81 82 81 80 79 80 79 82 78 79 77 80 79 82 77 78 78 78 77 77 78 78
82 82 81 80 80 78 79 80 82 80 79 77 83 76 73 78 77 79 79 77 76 78
82 81 80 81 80 78 79 80 79 81 81 80 81 71 71 73 82 79 78 79 79 79
82 81 81 81 80 80 80 80 81 80 80 80 81 70 68 71 80 81 81 80 79 80
83 81 81 80 81 81 81 80 81 82 80 80 81 67 67 68 77 80 80 80 81 79
84 83 81 81 82 83 83 83 82 82 82 77 81 68 65 67 80 76 79 79 78 69
84 84 83 83 83 83 82 82 82 81 82 82 79 80 62 62 81 81 79 80 80 81

GFSNIL_sfc_temp_066.txt.gz
Temp
74 74 74 74 78 80 80 79 76 77 76 76 75 75 74 73 74 74 73 73 73 72
73 73 73 74 75 78 80 79 76 77 76 76 76 75 74 73 73 74 73 73 73 72
77 75 73 74 74 75 76 77 76 77 77 76 75 75 73 73 74 73 73 73 73 72
79 77 72 74 76 76 75 77 77 78 77 77 76 75 73 73 73 73 73 73 73 73
78 78 76 73 75 76 75 75 77 78 78 78 77 75 74 73 76 73 73 74 73 74
78 78 78 78 73 74 76 74 75 77 78 78 78 77 76 76 75 74 74 75 74 74
78 78 78 80 79 72 73 76 75 77 78 79 79 78 78 77 75 74 75 75 75 75
79 79 79 79 79 78 74 77 77 76 77 78 79 80 78 78 76 74 73 74 75 75
79 79 78 77 78 77 77 77 76 75 77 77 81 74 71 76 77 76 75 74 73 75
79 78 78 78 77 77 77 78 78 77 76 76 78 70 69 71 78 76 77 77 78 76
80 78 78 78 77 77 78 77 78 78 79 78 78 68 67 69 78 76 77 78 78 77
81 79 79 78 78 78 78 77 78 79 78 78 80 66 66 67 76 78 77 78 79 78
81 81 79 80 79 80 80 79 79 79 80 75 79 67 64 66 78 77 78 78 78 69
81 82 82 81 81 81 80 80 79 79 80 80 78 79 62 61 78 79 78 77 78 79

GFSNIL_sfc_temp_069.txt.gz
Temp
73 74 73 72 72 74 76 76 75 74 74 73 73 73 73 72 72 72 72 72 71 70
73 73 73 72 72 75 76 77 75 75 74 74 74 73 73 72 72 72 71 72 71 71
74 73 72 72 72 73 74 75 74 74 73 74 74 74 72 72 72 72 71 72 72 71
75 72 71 72 73 73 74 74 74 74 74 74 74 73 72 72 72 72 71 71 71 71
77 74 72 72 72 73 73 73 74 74 74 74 75 73 73 72 74 71 71 72 71 71
77 76 75 73 71 72 72 73 73 73 74 75 76 75 74 74 72 72 72 73 72 72
76 76 77 77 74 72 72 73 73 73 74 75 76 77 76 74 73 73 73 73 73 74
77 78 77 77 77 74 71 74 74 74 73 75 76 78 76 76 74 74 73 73 74 74
77 76 76 76 76 76 76 72 71 73 75 74 78 73 71 75 76 75 73 73 73 74
75 75 76 76 75 75 76 76 75 74 73 75 77 69 69 71 79 77 76 75 74 73
77 74 75 76 75 75 76 76 75 76 76 75 77 68 67 69 76 78 77 77 76 75
78 76 76 75 76 76 76 75 75 76 76 76 77 65 65 67 75 76 76 76 76 76
72 76 76 76 77 77 75 77 77 76 77 74 77 66 63 65 77 75 76 77 76 68
69 70 72 78 79 78 78 78 76 76 77 77 76 76 61 61 76 78 78 77 78 77

GFSNIL_sfc_temp_072.txt.gz
Temp
72 74 73 73 73 74 74 76 76 76 76 76 75 76 75 75 76 76 76 76 75 76
72 72 73 73 74 74 75 78 77 76 76 76 75 75 75 75 75 75 75 76 76 76
73 73 73 74 73 74 75 76 76 76 76 76 75 76 75 75 75 75 76 76 75 75
73 73 72 74 74 74 75 75 75 76 77 76 75 75 73 74 75 75 75 75 75 75
73 73 73 73 74 74 75 75 75 76 76 76 76 76 76 75 77 75 75 76 75 75
74 73 73 73 73 73 74 74 75 75 75 76 76 76 76 76 76 76 76 76 76 76
74 75 75 74 73 73 74 74 74 75 76 76 77 77 77 76 76 76 76 76 76 77
75 75 75 74 74 74 74 75 75 75 76 76 77 79 76 77 76 76 76 77 77 77
75 74 74 74 73 73 73 73 73 74 75 76 79 71 70 75 77 76 76 76 76 77
75 74 74 74 73 73 73 73 73 73 74 74 76 68 68 70 78 77 77 76 77 77
74 74 74 74 73 73 74 73 72 73 73 74 76 67 66 69 77 78 78 77 77 77
75 74 74 73 73 74 74 74 74 75 73 73 74 65 64 67 76 77 77 78 78 78
69 72 74 73 73 73 74 75 76 76 75 71 74 65 62 65 77 76 77 77 76 67
67 68 71 73 74 72 73 73 75 75 76 75 73 74 61 60 75 77 77 77 78 79

GFSNIL_sfc_temp_075.txt.gz
Temp
81 85 86 84 87 86 87 87 86 85 85 84 84 84 83 85 86 85 85 83 82 88
81 81 84 84 84 87 85 88 86 86 85 85 84 84 84 86 81 82 84 85 84 86
82 82 83 83 83 84 86 85 86 85 86 85 85 84 83 84 84 83 86 87 83 84
83 83 82 83 83 84 85 85 84 84 85 85 85 84 83 83 85 83 83 84 83 83
82 83 83 81 83 84 83 85 85 85 84 85 85 85 83 83 85 82 83 84 83 83
78 80 83 82 83 83 83 84 86 85 84 84 85 84 84 84 84 85 85 85 84 84
77 77 82 83 83 83 82 83 84 84 84 85 86 85 86 85 84 85 85 85 85 85
82 80 78 80 83 83 82 83 83 83 84 85 86 89 85 85 85 84 84 85 85 86
83 82 81 81 81 81 81 81 82 82 83 84 87 77 72 80 86 85 84 84 85 85
81 80 80 81 81 80 80 81 80 81 82 82 84 70 68 70 87 86 85 84 85 87
79 79 81 80 80 79 81 80 80 80 81 81 83 69 66 68 83 86 86 86 86 85
75 79 80 79 79 80 80 80 80 81 80 80 81 66 65 68 83 85 84 86 86 86
73 73 77 79 79 80 80 81 83 82 82 76 80 67 62 67 83 83 85 84 84 69
69 69 70 75 78 79 79 79 80 80 81 81 80 79 61 60 80 84 85 85 87 87

GFSNIL_sfc_temp_078.txt.gz
Temp
86 90 90 90 93 93 94 94 93 90 90 90 90 90 89 90 91 90 90 88 88 94
86 86 90 90 90 93 92 95 92 92 90 90 90 89 88 91 88 88 88 90 88 90
88 87 88 89 87 89 92 91 92 90 91 90 90 90 88 90 89 87 90 92 89 88
90 89 88 88 88 88 90 90 90 90 89 89 90 90 88 88 90 88 88 89 88 87
87 89 90 88 89 89 88 90 90 90 87 90 90 90 88 88 91 88 88 88 88 88
87 88 88 89 89 89 88 88 91 90 88 88 90 89 89 89 89 89 89 89 88 88
87 87 86 89 89 89 88 87 88 89 90 90 90 90 90 90 89 90 91 90 90 90
89 87 87 83 87 89 88 88 88 88 89 90 91 94 90 90 90 89 89 90 90 90
88 88 86 85 79 86 87 87 87 87 88 88 93 79 73 83 91 90 89 89 90 90
83 84 84 86 85 84 84 86 85 86 87 87 88 73 70 72 90 91 90 89 90 92
77 80 81 81 82 84 85 85 85 85 86 86 89 71 69 70 87 89 89 91 91 89
68 71 76 80 79 82 81 83 85 86 85 85 86 67 66 70 86 87 87 89 91 91
69 66 68 75 75 78 82 83 86 86 87 80 85 69 63 68 88 87 89 88 88 73
69 67 68 67 72 75 77 80 82 84 85 86 84 84 61 60 84 88 90 91 92 93

GFSNIL_sfc_temp_081.txt.gz
Temp
88 90 91 91 87 86 83 84 90 91 91 90 91 90 90 90 91 91 90 88 88 89
88 88 91 92 92 94 90 85 93 93 91 91 91 91 89 90 90 89 88 90 88 90
89 89 89 91 90 92 93 93 79 92 90 91 91 91 89 89 90 88 91 92 88 88
91 91 90 90 90 90 91 91 92 91 91 90 90 91 88 89 85 88 88 88 90 89
90 91 91 89 90 90 89 90 90 91 89 90 90 91 89 89 92 90 88 89 89 89
90 89 90 91 90 90 89 89 91 91 88 89 90 90 90 90 89 90 90 90 90 89
90 90 90 91 91 90 90 89 89 90 91 90 90 91 91 91 87 88 91 91 91 91
90 90 90 89 89 91 90 90 89 89 90 91 92 95 90 91 91 87 90 91 92 92
82 79 89 88 88 87 87 90 90 88 89 89 94 81 75 83 92 91 90 89 90 91
74 76 78 83 85 86 84 87 87 88 89 88 89 75 71 74 92 91 91 89 88 92
70 73 76 76 79 81 84 82 84 87 87 88 90 72 69 70 88 90 90 90 91 90
69 69 72 74 72 76 80 79 80 82 84 84 87 69 67 70 87 88 87 89 90 90
72 70 70 70 72 73 76 79 81 83 81 79 85 71 65 68 88 87 89 88 87 74
76 74 72 70 72 71 73 76 78 80 81 83 82 83 63 61 84 87 89 91 93 94

GFSNIL_sfc_temp_087.txt.gz
Temp
75 75 76 77 74 77 72 73 75 77 77 77 77 78 77 76 76 76 76 75 74 74
75 76 77 78 75 78 74 76 77 75 77 79 78 77 77 75 75 76 76 76 75 74
75 77 77 77 77 77 75 77 76 75 75 76 78 77 77 75 76 75 75 77 75 75
78 78 76 77 78 77 75 74 73 73 73 75 77 77 76 75 77 77 75 75 75 75
78 79 78 77 78 78 76 74 73 72 71 74 75 77 76 77 79 76 75 76 75 76
77 80 80 79 78 79 78 78 77 75 74 75 78 77 76 77 77 76 76 76 75 76
71 72 77 77 79 79 79 78 78 77 77 78 78 79 78 77 76 77 78 77 77 77
71 72 74 75 76 76 77 79 79 78 78 78 79 82 78 78 77 77 77 77 78 79
70 70 70 72 73 75 76 76 77 77 78 77 83 76 74 77 78 77 77 77 76 78
68 68 69 70 69 68 69 73 74 75 76 76 76 71 71 70 76 77 75 75 76 78
67 67 68 68 68 69 69 69 71 73 74 75 76 68 66 68 71 75 76 77 76 77
68 67 66 66 66 67 68 70 70 71 72 72 74 68 64 65 70 71 75 77 77 77
68 68 65 66 66 67 67 69 71 71 72 70 73 68 62 64 71 72 75 76 76 68
66 66 66 66 65 66 66 66 67 70 70 71 71 68 60 59 67 71 72 73 74 79

GFSNIL_sfc_temp_090.txt.gz
Temp
73 73 73 74 72 73 71 71 74 75 75 75 75 75 75 73 74 74 73 73 72 71
73 74 75 75 72 75 72 72 75 75 75 76 76 75 74 73 74 73 73 73 72 71
73 74 74 73 74 74 73 74 74 74 75 75 75 75 74 73 73 74 73 74 73 72
73 74 74 74 74 75 74 73 73 73 75 74 75 75 74 73 74 74 73 73 73 73
74 74 74 75 75 75 74 73 73 73 71 72 73 74 74 74 76 74 74 73 73 73
72 72 75 75 75 75 74 73 73 73 71 70 73 74 74 74 75 74 74 74 73 74
69 70 71 73 74 73 74 74 73 73 73 74 75 76 76 75 72 74 75 75 75 75
70 70 71 72 73 75 74 74 75 75 75 75 76 79 75 75 75 74 74 75 75 76
69 69 70 69 69 70 71 73 73 74 74 74 79 71 70 73 75 75 74 74 75 76
67 68 68 68 69 68 68 69 70 71 73 73 74 69 68 68 71 73 73 73 74 76
66 65 66 66 66 67 68 68 68 70 70 70 73 67 65 67 70 71 73 74 74 74
66 65 66 65 66 66 67 67 68 69 69 70 71 64 62 64 70 70 71 73 74 75
64 64 64 64 65 66 66 66 68 68 70 68 72 58 58 62 68 69 71 72 73 66
60 62 64 63 64 64 64 63 64 66 67 68 65 62 57 58 65 64 66 68 70 70

GFSNIL_sfc_temp_093.txt.gz
Temp
72 71 70 71 71 72 71 72 73 74 74 73 74 73 72 72 72 72 72 72 70 70
72 72 72 72 72 73 73 72 73 73 73 72 73 73 73 72 72 72 72 71 71 70
72 73 72 72 73 72 73 73 73 73 73 74 74 74 72 72 72 71 71 72 72 71
71 73 73 72 73 73 73 72 72 73 73 73 73 73 72 72 73 72 72 71 71 71
72 73 72 71 73 74 73 71 71 72 72 72 72 73 73 72 74 72 72 73 71 71
70 71 72 72 73 74 74 72 72 72 71 70 72 72 73 73 72 73 73 73 72 72
69 69 70 71 71 72 73 73 72 72 72 72 72 73 73 74 72 72 73 73 73 73
69 70 70 69 69 70 72 73 72 72 73 73 74 76 73 73 73 72 72 73 73 74
68 68 68 68 68 68 69 70 71 71 71 71 76 72 70 72 73 73 73 72 73 73
67 66 66 67 67 67 67 68 68 70 70 71 71 66 65 68 71 71 71 72 72 74
65 65 65 65 65 66 66 66 67 68 68 68 70 63 63 65 68 70 70 71 72 72
63 63 64 64 64 65 65 64 65 67 68 68 69 59 60 65 69 69 70 70 71 71
60 61 60 62 62 64 63 63 64 66 68 65 66 58 60 64 67 66 67 68 69 61
57 59 60 61 62 63 63 62 64 66 66 66 64 64 56 58 63 62 62 63 65 66

GFSNIL_sfc_temp_096.txt.gz
Temp
72 72 71 72 74 74 73 74 76 76 76 75 75 75 75 75 76 76 76 76 75 75
73 72 73 74 74 74 74 75 76 76 76 75 75 76 75 75 76 76 75 76 75 75
73 74 74 74 74 73 73 75 75 75 75 76 75 76 75 75 75 75 76 76 75 75
73 74 74 74 74 75 75 74 73 74 74 74 75 76 75 75 75 75 75 76 75 76
72 73 73 72 74 75 75 74 72 74 74 75 75 75 75 75 76 73 75 76 75 74
71 72 72 73 74 75 75 74 74 73 73 72 74 74 75 75 75 75 75 74 75 74
69 70 70 71 72 73 74 75 74 73 74 73 74 74 74 75 75 75 76 75 75 75
69 69 70 69 69 70 71 72 73 74 74 75 75 77 75 76 76 76 76 77 76 77
68 68 67 69 69 69 69 70 70 72 72 72 74 68 68 73 76 76 76 76 77 77
66 66 66 67 67 67 67 68 69 70 70 70 71 63 64 66 72 74 75 75 75 77
66 65 65 65 65 65 65 66 67 68 69 70 68 60 61 65 71 72 72 73 73 73
63 62 63 64 64 64 63 63 63 66 69 66 63 59 61 66 70 69 70 71 69 69
59 60 60 62 63 63 62 63 64 66 66 62 63 56 57 61 63 63 65 68 68 62
57 58 58 59 60 61 62 62 62 61 59 58 56 54 54 55 59 60 63 64 64 66

GFSNIL_sfc_temp_099.txt.gz
Temp
81 86 85 84 86 86 85 87 85 85 84 84 84 84 83 86 87 86 87 84 84 88
80 82 84 83 83 86 84 86 85 85 84 85 83 84 83 86 84 84 85 85 84 86
83 82 83 83 83 82 83 83 83 83 84 84 83 84 82 84 83 82 86 87 83 84
83 84 83 82 82 83 83 82 82 82 82 82 83 83 82 82 83 82 82 83 83 83
82 82 82 82 83 83 82 83 82 82 82 83 82 83 83 83 84 82 82 83 82 82
81 80 82 82 83 82 82 82 84 82 82 82 82 82 83 82 84 84 83 84 82 84
76 78 79 80 79 81 82 81 82 82 82 82 80 82 83 83 83 83 84 85 85 84
72 73 77 77 77 76 79 80 81 81 82 82 84 85 83 83 83 83 84 85 85 86
69 71 74 75 75 76 76 78 79 79 78 77 79 63 65 72 82 84 83 83 84 86
68 68 69 73 73 73 75 76 76 77 78 73 69 61 62 66 79 80 82 81 81 82
66 66 67 70 72 72 74 74 75 76 71 70 68 59 61 65 78 78 76 74 73 72
69 66 67 66 68 70 71 73 74 70 70 67 64 57 58 68 70 71 69 70 68 69
66 69 64 68 67 70 70 68 66 64 63 58 61 55 55 62 71 69 66 71 70 59
66 66 66 65 65 66 65 63 61 61 59 58 54 53 53 54 62 61 69 68 72 70

GFSNIL_sfc_temp_102.txt.gz
Temp
86 89 90 90 93 91 91 92 91 90 90 89 89 90 89 91 92 90 92 89 88 94
87 86 89 89 88 92 89 92 89 90 89 90 90 89 88 91 89 89 89 90 89 91
88 88 89 88 87 88 88 88 89 89 90 90 89 89 88 90 89 87 90 92 89 88
89 89 88 89 89 89 88 87 88 87 88 88 87 88 87 87 89 87 87 88 88 87
89 89 90 88 89 89 88 88 88 88 86 88 89 87 87 88 90 87 86 87 87 87
86 88 88 88 89 88 88 88 90 87 88 88 88 86 87 88 88 89 88 88 87 87
86 88 88 88 87 88 87 86 88 89 88 89 89 88 87 88 88 88 89 89 89 89
80 82 84 85 86 86 87 87 86 88 88 88 90 92 88 88 87 88 88 88 90 91
70 74 78 79 82 83 84 85 85 85 86 87 91 63 64 73 88 88 87 87 88 90
70 71 71 74 78 80 81 83 82 84 82 78 77 61 63 66 84 86 87 86 87 88
71 69 68 69 70 73 77 80 82 78 78 76 71 59 62 67 83 77 75 76 75 75
68 67 66 66 69 71 74 78 76 77 74 72 67 56 57 72 77 76 74 75 76 78
70 72 73 74 71 70 73 68 70 72 69 62 63 54 55 67 83 77 79 78 75 59
69 70 72 72 73 68 64 63 66 65 58 58 57 59 53 54 72 78 79 79 79 76

GFSNIL_sfc_temp_105.txt.gz
Temp
88 91 91 91 83 81 86 86 88 90 91 91 91 91 90 91 91 92 91 90 89 91
88 87 87 73 84 90 92 88 92 92 91 92 91 91 90 90 90 90 90 91 90 90
89 89 90 88 88 74 86 87 85 91 91 91 91 90 89 91 90 89 90 93 91 89
91 92 91 90 90 90 89 88 90 88 88 88 90 90 87 87 86 88 88 89 89 88
91 92 92 90 91 91 88 88 88 89 89 89 89 88 87 87 92 89 88 88 88 88
89 90 90 91 91 90 89 89 90 89 88 88 90 89 88 88 90 90 90 90 89 88
87 90 90 87 90 91 89 88 89 89 89 90 90 90 90 89 88 89 91 90 85 88
82 87 87 87 87 90 90 89 88 88 87 90 92 91 85 89 88 88 89 91 91 90
79 81 81 83 85 84 86 88 88 87 87 87 90 64 64 71 88 87 86 86 90 91
75 75 73 74 79 79 81 83 83 83 83 81 78 60 62 67 83 86 85 86 86 86
71 71 73 72 70 72 74 79 78 79 78 77 72 58 59 64 82 83 81 82 81 81
76 72 68 68 70 72 72 73 72 74 76 73 69 55 57 65 81 78 78 78 75 80
73 68 68 68 67 71 70 68 69 70 71 62 68 54 55 61 85 80 80 77 72 59
70 69 70 72 73 70 69 68 68 69 66 64 62 58 54 55 69 72 82 82 81 76

GFSNIL_sfc_temp_108.txt.gz
Temp
84 86 81 77 74 70 72 73 83 86 86 86 86 86 86 85 84 84 84 84 82 83
85 86 81 78 76 74 74 74 79 85 87 86 87 87 85 84 82 79 76 83 84 82
85 86 84 80 73 73 71 74 72 76 88 88 84 85 86 82 81 84 84 84 81 84
85 86 86 85 83 76 76 77 76 78 87 87 84 83 85 82 82 83 84 84 82 83
86 86 86 86 84 87 84 84 84 83 83 85 86 86 83 82 82 80 82 84 84 83
86 87 87 84 86 86 85 84 86 85 82 83 83 81 84 83 82 83 83 85 85 83
81 85 86 83 85 86 85 83 85 83 81 82 83 82 85 85 83 83 84 84 84 82
77 82 80 82 84 84 84 83 83 85 83 84 76 72 71 80 84 82 81 83 82 84
76 76 75 77 81 82 81 83 84 82 83 82 70 63 64 68 80 82 82 80 81 80
78 77 74 75 78 75 77 79 80 80 78 72 67 60 61 65 75 79 81 81 81 81
74 74 73 73 76 75 72 72 72 72 72 72 64 58 59 63 73 78 79 77 77 74
75 73 71 69 71 71 70 70 68 68 67 68 61 56 57 63 79 75 69 68 66 70
74 73 72 71 68 71 70 67 65 63 63 63 62 56 56 62 72 73 69 69 65 60
72 72 70 69 71 69 68 67 65 63 61 61 59 58 55 56 64 65 69 71 69 66

GFSNIL_sfc_temp_111.txt.gz
Temp
75 71 71 72 71 68 69 71 73 73 79 79 78 79 78 77 76 76 75 76 75 74
75 73 72 72 71 72 70 72 73 74 75 79 79 79 78 76 76 75 75 76 76 75
76 75 73 72 71 69 70 73 72 73 75 78 79 79 78 75 76 75 75 76 76 75
76 77 73 73 71 71 71 71 71 72 73 78 78 78 77 76 77 78 76 76 76 76
77 77 77 76 74 73 71 72 72 73 75 77 77 77 74 76 77 76 75 76 76 76
80 80 78 78 78 75 74 74 76 76 75 76 77 77 77 76 76 76 76 78 77 77
73 78 79 79 81 79 78 76 75 75 76 75 75 72 75 77 76 76 78 79 78 77
75 74 76 77 77 80 76 77 76 75 75 69 69 68 66 69 73 75 76 76 75 76
72 74 73 73 73 73 73 73 75 75 73 66 67 63 65 66 69 74 75 73 73 70
73 73 73 73 73 73 72 72 71 70 65 59 58 60 61 65 67 71 73 72 71 68
70 70 69 70 70 71 71 71 69 68 66 61 61 58 59 62 67 67 65 66 64 62
69 68 68 67 68 69 69 67 65 65 64 62 60 57 58 63 68 65 62 61 64 63
69 68 67 66 66 67 65 63 62 61 64 61 60 57 57 63 68 64 62 62 61 60
69 69 67 66 66 66 65 63 62 61 60 60 60 59 56 57 62 62 65 63 61 60

GFSNIL_sfc_temp_114.txt.gz
Temp
73 71 70 70 70 70 69 70 72 73 75 76 76 76 75 74 74 74 73 74 73 71
72 72 71 72 72 71 69 71 72 74 75 75 76 77 75 74 74 74 72 73 73 71
72 72 72 71 70 69 69 70 72 73 73 74 75 76 75 74 74 74 73 75 72 72
72 72 71 71 70 69 69 69 71 72 72 73 75 75 74 73 74 76 74 74 74 75
74 73 72 72 71 70 69 70 71 71 71 72 74 74 73 74 76 74 73 74 73 74
75 73 73 73 71 70 70 70 71 71 71 72 74 72 72 73 72 74 75 74 74 74
73 74 76 76 74 72 72 71 71 72 72 72 70 70 70 71 73 74 73 74 74 74
72 73 73 72 72 73 73 73 73 73 69 68 67 67 66 68 70 72 72 73 74 71
70 71 72 73 74 73 71 70 71 70 67 65 67 62 65 66 68 70 71 70 68 67
71 71 71 71 72 72 70 71 68 66 63 61 60 60 61 65 66 70 70 70 67 67
70 69 69 70 71 71 70 70 68 65 63 60 60 59 60 63 66 65 65 64 62 61
69 68 68 68 68 68 68 67 66 64 61 60 61 58 59 66 64 61 60 61 62 62
68 68 67 67 67 66 65 63 61 60 61 60 61 57 57 65 63 60 61 60 59 60
68 67 66 65 65 63 62 61 59 59 60 61 60 60 56 59 63 60 63 63 62 61

GFSNIL_sfc_temp_117.txt.gz
Temp
71 69 69 70 69 69 69 70 71 72 73 74 75 74 73 72 73 72 72 72 71 69
71 70 70 70 69 70 69 71 71 73 73 74 74 74 73 72 73 72 71 72 71 70
71 71 71 70 70 70 69 69 71 72 73 73 74 74 73 72 73 72 71 72 71 71
71 71 71 70 71 70 69 68 69 70 72 72 73 73 72 72 73 73 72 72 71 72
71 71 70 70 70 69 68 67 68 70 71 71 72 71 71 72 74 73 72 73 72 72
71 71 70 70 70 69 69 68 69 70 70 70 72 73 72 72 72 72 73 73 72 73
71 71 72 72 71 70 69 69 68 70 71 71 71 70 71 72 72 72 72 73 73 73
72 72 71 71 71 71 70 70 70 71 70 68 69 68 67 68 71 72 71 72 72 70
70 71 71 71 71 71 70 70 70 70 67 65 66 62 65 65 67 69 70 70 68 67
70 69 70 71 71 70 70 70 68 65 64 62 61 61 62 65 65 67 68 69 66 67
69 69 69 70 70 70 70 69 68 65 63 61 61 60 60 63 65 65 64 64 63 62
69 68 68 68 68 68 69 69 67 65 61 61 61 59 58 64 64 62 61 61 63 63
68 67 67 67 67 66 66 64 62 60 59 59 60 58 58 63 62 59 58 58 60 61
67 67 67 67 66 63 62 62 61 60 61 60 61 58 56 59 61 58 62 62 62 61

GFSNIL_sfc_temp_120.txt.gz
Temp
72 71 71 72 71 71 71 73 75 75 76 76 77 77 76 76 77 76 76 76 75 73
71 71 71 72 72 73 72 73 74 75 75 76 77 77 75 75 75 75 75 75 75 74
72 72 72 73 71 71 72 72 73 73 75 75 75 77 76 75 76 75 75 76 75 75
72 72 73 72 72 72 72 71 71 72 73 73 74 76 75 75 75 75 75 76 75 75
72 72 72 72 72 72 71 70 71 71 72 73 74 75 74 75 77 75 75 75 75 75
72 72 72 72 73 72 71 71 70 70 72 73 73 74 73 73 75 75 75 75 76 76
72 73 73 73 73 73 72 72 70 71 72 72 73 74 74 73 74 75 75 75 76 76
73 73 73 72 72 72 71 72 72 71 73 72 72 70 70 72 73 73 75 75 75 75
71 72 72 72 72 72 72 71 71 72 72 70 68 63 65 67 70 72 73 73 73 72
71 71 71 72 71 71 71 70 71 69 67 65 66 62 63 65 68 70 71 72 70 71
69 69 69 70 70 70 70 68 68 67 65 64 63 60 60 63 67 68 68 69 69 68
69 68 68 68 68 69 69 69 68 66 64 63 62 59 59 64 65 63 64 65 66 67
69 68 68 68 68 67 68 67 65 62 62 61 61 57 57 62 64 62 61 61 61 62
68 68 68 67 66 65 63 61 60 58 58 56 56 58 57 59 62 61 59 60 62 61

GFSNIL_sfc_temp_126.txt.gz
Temp
86 88 90 89 92 90 92 93 92 91 90 90 90 90 89 91 92 91 91 89 88 93
87 86 90 90 89 91 90 92 89 90 89 90 90 89 89 91 90 89 89 90 89 90
88 88 89 87 87 89 89 88 86 88 89 89 89 88 87 89 90 88 90 93 90 88
90 90 89 89 87 88 89 88 87 87 87 87 88 88 86 86 87 87 87 88 88 87
89 88 89 88 89 89 88 88 87 87 86 86 87 87 86 86 89 87 87 87 86 86
88 88 88 88 88 88 87 87 89 87 85 86 86 86 87 86 87 88 88 88 87 88
88 89 90 89 88 88 88 87 87 87 86 86 87 87 87 86 86 87 88 87 88 88
87 86 86 87 87 87 86 87 87 86 86 86 88 90 87 87 84 85 86 88 87 88
81 83 79 80 83 84 84 85 84 85 85 85 89 67 68 74 86 86 85 83 85 87
77 80 76 81 75 79 81 81 80 82 84 84 84 66 66 67 83 85 85 84 84 85
77 76 76 78 77 78 74 73 71 77 82 81 81 63 63 65 79 79 79 83 83 83
78 79 79 73 74 77 77 70 71 72 74 74 75 61 61 65 76 73 73 74 73 80
73 75 72 72 71 72 72 72 71 71 70 63 67 58 57 63 66 70 69 73 66 60
77 76 77 76 71 70 69 68 65 61 60 60 58 59 55 56 63 65 63 63 64 62